Regional Weather Roundup
Issued by NWS Raleigh/Durham, NC

Current Version | Previous Version | Text Only | Print | Product List | Glossary On
Versions: 1 2 3 4 5 6 7 8 9 10 11 12 13 14 15 16 17 18 19 20 21 22 23 24 25 26 27 28 29 30 31 32 33 34 35 36 37 38 39 40 41 42 43 44 45 46 47 48 49 50
000 ASUS42 KRAH 161310 RWRRAH NORTH CAROLINA WEATHER ROUNDUP NATIONAL WEATHER SERVICE RALEIGH NC 900 AM EDT TUE SEP 16 2014 NOTE: "FAIR" INDICATES FEW OR NO CLOUDS BELOW 12,000 FEET WITH NO SIGNIFICANT WEATHER AND/OR OBSTRUCTIONS TO VISIBILITY. NCZ001-053-055-056-065-067-161400- WESTERN NORTH CAROLINA CITY SKY/WX TMP DP RH WIND PRES REMARKS ASHEVILLE MOSUNNY 66 63 90 N8 30.14S JEFFERSON RAIN 64 59 85 W9 30.17R MORGANTON MOSUNNY 68 68 100 CALM 30.12S HICKORY CLOUDY 68 67 96 E3 30.07S FOG RUTHERFORDTON PTSUNNY 68 68 98 S7 30.08F MOUNT AIRY FOG 65 63 93 CALM 30.10S VSB 1 BOONE MOSUNNY 64 62 91 NW21G28 30.16R $$ NCZ021-022-025-041-071-084-088-161400- CENTRAL NORTH CAROLINA CITY SKY/WX TMP DP RH WIND PRES REMARKS CHARLOTTE PTSUNNY 73 67 81 SW3 30.08S GREENSBORO PTSUNNY 70 65 84 CALM 30.07S WINSTON-SALEM CLOUDY 68 64 87 CALM 30.09S FOG RALEIGH-DURHAM PTSUNNY 72 67 84 NW5 30.06F FORT BRAGG CLOUDY 71 69 94 NW1 30.06S FAYETTEVILLE CLOUDY 72 70 93 CALM 30.06S FOG BURLINGTON MOSUNNY 72 65 78 W5 30.07S LAURINBURG CLOUDY 73 70 90 N5 30.07S FOG $$ NCZ011-015-027-028-043-044-047-080-103-161400- NORTHEASTERN NORTH CAROLINA CITY SKY/WX TMP DP RH WIND PRES REMARKS ROCKY MT-WILSO PTSUNNY 72 68 87 SW6 30.06S GREENVILLE PTSUNNY 72 68 88 W5 30.07S WASHINGTON PTSUNNY 71 67 86 SW3 30.05F ELIZABETH CITY SUNNY 73 67 81 SW8 30.04F MANTEO PTSUNNY 73 67 82 SW6 30.05S CAPE HATTERAS PTSUNNY 74 69 85 W3 30.05F $$ NCZ078-087-090-091-093-098-101-161400- SOUTHEASTERN NORTH CAROLINA CITY SKY/WX TMP DP RH WIND PRES REMARKS LUMBERTON CLOUDY 72 70 93 CALM 30.05S FOG GOLDSBORO CLOUDY 72 72 100 CALM 30.04S KINSTON MOSUNNY 72 70 94 CALM 30.06S KENANSVILLE PTSUNNY 72 69 92 CALM 30.07S NEW BERN CLOUDY 75 67 76 CALM 30.06S CHERRY POINT PTSUNNY 76 69 79 CALM 30.06S BEAUFORT PTSUNNY 74 69 85 NE3 30.05S JACKSONVILLE CLOUDY 71 71 100 CALM 30.05S WILMINGTON PTSUNNY 75 72 90 NW5 30.05R $$

USA.gov is the U.S. government's official web portal to all federal, state and local government web resources and services.